www.pogodaiklimat.ru

Погода и климат >> Архив погоды >> Россия >> Краснодарский край >> Туапсе


АРХИВ ПОГОДЫ в Туапсе

Время (UTC), дата Ветер
(напр.,м/с)
 
Видим.   Явления Облачность Т
(С)
Тd
(С)
f
(%)
Тe
(С)
Тes
(С)
Комфортность P
(гПа)
Po
(гПа)
Тmin
(С)
Tmax
(С)
R
(мм)
R24
(мм)
S
(см)
09 12.03 ЮЗ 2 20 км 10/4 1000 м
[Cu Sc Ac trans Ci]
+17.0 +4.7 44 +17 +20 тепло 1008.5 1001.3
12 12.03 ЮВ 6-11
{11}
20 км 10/8 1000 м
[Cb cap Ac trans Ci]
+13.7 +3.8 51 +12 +12 тепло 1008.9 1001.6
15 12.03 ЮВ 3
{11}
20 км 10/8 1000 м
[Cb cap Ac trans Ci]
+12.4 +5.3 62 +11 +11 тепло 1009.7 1002.3 +17.5
18 12.03 ЮВ 1 4000 м слаб. ливневой дождь 10/10 600 м
[Cb cap]
+11.0 +6.5 74 +11 +11 тепло 1011.1 1003.7
21 12.03 В 1 4000 м слаб. ливневой дождь 10/10 600 м
[Cb cap]
+10.5 +7.5 82 +10 +10 тепло 1012.1 1004.7
00 13.03 В 1 4000 м слаб. ливневой дождь 10/10 600 м
[Cb cap]
+10.4 +7.7 83 +10 +10 тепло 1011.2 1003.8
03 13.03 ЮВ 4 4000 м слаб. ливневой дождь 10/10 600 м
[Cb cap]
+10.9 +9.3 90 +8 +8 тепло 1010.2 1002.8 +10.0 10
06 13.03 СВ 2 10 км слаб. ливневой дождь 10/10 600 м
[Cb cap]
+9.4 +7.8 90 +8 +8 тепло 1010.1 1002.7 +9.2
09 13.03 С 3
{10}
10 км слаб. ливневой дождь 10/10 600 м
[Cb cap]
+5.1 +2.9 86 +2 +2 по сезону 1011.4 1003.8
12 13.03 СВ 4-10
{14}
10 км слаб. ливневой дождь 10/10 600 м
[Cb cap]
+5.3 +2.5 82 +1 +1 прохладно 1011.7 1004.1
15 13.03 СВ 4-12
{12}
10 км в посл. час ливневой дождь 10/8 1000 м
[Cb cap Ac trans Ci fib]
+5.4 +1.5 76 +2 +2 по сезону 1012.8 1005.2 +11.2 39
18 13.03 СВ 5
{12}
10 км {ливн. осадки} 10/6 1000 м
[Cb cap Ac trans Ci fib]
+6.0 -1.0 61 +2 +2 по сезону 1014.0 1006.4
21 13.03 СВ 5-10
{12}
10 км 10/3 1000 м
[Sc Ac trans Ci fib]
+5.6 -0.5 65 +1 +1 по сезону 1014.3 1006.7
00 14.03 СВ 4
{11}
10 км 10/8 1000 м
[Cb cap Ac trans Ci fib]
+5.7 -0.4 65 +2 +2 по сезону 1014.7 1007.1
03 14.03 СВ 3
{10}
10 км 10/10 600 м
[Cb cap]
+5.9 -0.5 63 +3 +3 по сезону 1015.0 1007.4 +4.9
06 14.03 СВ 4 10 км 10/10 600 м
[Cb cap]
+5.8 -0.4 64 +2 +2 по сезону 1015.1 1007.5
09 14.03 СВ 2 20 км 10/8 1000 м
[Cb cap Ci sp]
+7.7 +1.3 64 +6 +8 по сезону 1013.6 1006.1
12 14.03 СВ 2 20 км в посл. час ливневой дождь 10/10 1000 м
[Cb cap]
+7.6 +2.8 72 +6 +6 по сезону 1012.6 1005.1
15 14.03 С 2 20 км 10/6 1000 м
[Cb cap Ci sp]
+8.3 +2.5 67 +7 +7 по сезону 1011.3 1003.8 +8.8 0.0
18 14.03 СВ 1 10 км 10/6 1000 м
[Cb cap Ci sp]
+7.7 +2.6 70 +7 +7 тепло 1010.6 1003.1
21 14.03 СВ 2 10 км в посл. час ливневой дождь 10/10 1000 м
[Cb cap]
+6.8 +2.8 76 +5 +5 по сезону 1010.4 1002.9
00 15.03 Ю 1 10 км в посл. час ливневой дождь 10/10 1000 м
[Cb cap]
+7.8 +5.8 87 +7 +7 тепло 1009.9 1002.4
03 15.03 СВ 1 4000 м слаб. ливневой дождь 10/10 600 м
[Cb cap]
+7.7 +5.5 86 +7 +7 тепло 1009.4 1001.9 +6.7 0.3
06 15.03 СВ 1 10 км в посл. час ливневой дождь 10/8 600 м
[Cb cap Ac As]
+8.6 +6.1 84 +8 +8 тепло 1008.6 1001.2
09 15.03 ЮЗ 1 20 км 10/4 1000 м
[Cu Sc Ci sp]
+12.1 +7.4 73 +12 +18 тепло 1006.9 999.6
12 15.03 ЮЗ 2 20 км 10/8 600 м
[Cb cap Ac trans Ci sp]
+10.4 +6.7 78 +9 +10 тепло 1008.2 1000.8
15 15.03 З 1 20 км {ливн. осадки} 10/8 1000 м
[Cb cap Ac trans Ci sp]
+9.3 +6.8 84 +9 +9 тепло 1007.4 1000.0 +14.0 0.0
18 15.03 ЮЗ 1 10 км {ливн. осадки} 10/10 600 м
[Cb cap]
+8.1 +5.0 81 +7 +7 тепло 1009.2 1001.7
21 15.03 З 1 10 км 10/10 600 м
[Cb cap]
+7.9 +4.8 81 +7 +7 тепло 1009.6 1002.1
00 16.03 С 1 10 км 10/10 600 м
[Cb cap]
+7.8 +4.9 82 +7 +7 тепло 1009.1 1001.6
03 16.03 З 1 10 км {ливн. осадки} 10/10 600 м
[Cb cap]
+7.6 +4.4 80 +7 +7 тепло 1008.6 1001.1 +7.5 0.0
06 16.03 С 1 10 км слаб. ливневой дождь 10/10 600 м
[Cb cap]
+7.8 +5.4 85 +7 +7 тепло 1008.8 1001.3 +7.3
09 16.03 штиль 0 10 км слаб. ливневой дождь 10/10 600 м
[Cb cap]
+8.1 +5.4 83 +7 +7 по сезону 1009.2 1001.7
12 16.03 ЮЗ 2 10 км слаб. ливневой дождь 10/10 600 м
[Cb cap]
+7.5 +5.8 89 +5 +5 по сезону 1010.1 1002.6
15 16.03 Ю 1 10 км слаб. ливневой дождь 10/10 600 м
[Cb cap]
+6.6 +4.8 88 +6 +6 по сезону 1011.5 1004.0 +8.5 14
18 16.03 В 2 10 км в посл. час ливневой дождь 10/10 600 м
[Cb cap]
+6.3 +3.3 81 +4 +4 по сезону 1012.3 1004.8
21 16.03 ЮВ 4 4000 м слаб. ливневой дождь 10/10 600 м
[Cb cap]
+6.5 +4.6 88 +3 +3 по сезону 1011.8 1004.3
00 17.03 Ю 3 4000 м слаб. ливневой дождь 10/10 600 м
[Cb cap]
+6.8 +4.9 88 +4 +4 по сезону 1009.7 1002.2
03 17.03 Ю 3
{10}
4000 м слаб. ливневой дождь 10/10 600 м
[Cb cap]
+6.9 +4.7 86 +4 +4 по сезону 1009.2 1001.7 +6.3 6
06 17.03 ЮЗ 5
{14}
10 км слаб. ливневой дождь 10/8 600 м
[Cb cap Ac trans Ci fib]
+6.0 +3.7 85 +2 +2 по сезону 1010.3 1002.8 +5.7
09 17.03 ЮЗ 7-11
{13}
10 км слаб. ливневой дождь 10/8 600 м
[Cb cap Ac trans Ci fib]
+6.5 +4.8 89 +1 +2 прохладно 1010.7 1003.2
12 17.03 ЮЗ 8-13
{13}
10 км слаб. ливневой дождь 10/8 600 м
[Cb cap Ac trans Ci fib]
+5.8 +3.9 88 0 0 холодно 1013.3 1005.7
15 17.03 З 4
{12}
20 км {ливн. осадки} 9/6 600 м
[Cb cap Ac trans Ci fib]
+7.3 +3.2 75 +4 +4 по сезону 1016.5 1009.0 +7.8 8
18 17.03 ЮВ 2 10 км {ливн. осадки} 10/8 600 м
[Cb cap Ac trans Ci fib]
+7.0 +3.3 77 +5 +5 по сезону 1019.1 1011.5
21 17.03 СВ 2 10 км в посл. час ливневой дождь 10/6 600 м
[Cb cap Ac trans Ci fib]
+5.1 +2.8 85 +3 +3 по сезону 1019.8 1012.2
00 18.03 С 2 4000 м слаб. ливневой дождь 10/10 600 м
[Cb cap]
+4.2 +2.2 87 +1 +1 по сезону 1021.2 1013.5
03 18.03 СВ 2 10 км в посл. час ливневой дождь 10/9 600 м
[Cb cap Ci fib]
+4.3 +2.0 85 +2 +2 по сезону 1021.6 1013.9 +3.9 7
06 18.03 СВ 2 20 км {ливн. осадки} 8/8 1000 м
[Cb cap]
+5.3 +2.6 83 +3 +4 по сезону 1023.3 1015.7
09 18.03 ЮЗ 3 20 км 6/6 1000 м
[Cu Sc]
+11.3 +4.6 63 +10 +14 тепло 1023.3 1015.8
12 18.03 З 3 20 км 8/8 1000 м
[Cb cap]
+11.5 +4.0 60 +10 +11 тепло 1023.2 1015.7
15 18.03 штиль 0 20 км {ливн. осадки} 6/3 1000 м
[Cu Sc Ac cast Ci fib]
+10.0 +4.4 68 +10 +10 тепло 1023.3 1015.8 +14.7 0.6
18 18.03 СВ 2 10 км {ливн. осадки} 6/6 1000 м
[Sc]
+8.9 +0.5 56 +8 +8 тепло 1022.8 1015.3
21 18.03 СВ 2 10 км ясно +9.0 +0.1 54 +8 +8 тепло 1022.6 1015.1
00 19.03 В 1 10 км ясно +6.8 +0.9 66 +6 +6 тепло 1023.8 1016.2
03 19.03 СВ 3 10 км 4/4 1000 м
[Sc]
+5.0 +1.1 76 +2 +2 по сезону 1024.2 1016.5 +4.8
06 19.03 СВ 1 20 км 9/8 1000 м
[Cb cap Ci sp]
+7.2 +2.3 71 +7 +8 по сезону 1024.6 1017.0 +4.3

 

Местоположение метеостанции Туапсе (Краснодарский край, Россия): широта 44.10 долгота 39.07 высота над уровнем моря 62 м.

В архиве по умолчанию представлена погода в Туапсе за последнюю неделю. Архивные данные за месяц целиком и за предыдущие месяцы, начиная с января 2011 года, Вы можете получить, выбрав интересующий диапазон дат из раскрывающегося списка и нажав кнопку "Ввод!".


*Определитесь, кто Вы:
робот инопланетянин человек

Внимание! Время в таблицах - всемирное. Для получения местного времени необходимо прибавить поправку, которая равна 3 ч.

Смотрите также архив погоды в соседних городах и на ближайших метеорологических станциях:

Погода в Магри (Краснодарский край, Россия) (11 км)
Погода в Горном (Краснодарский край, Россия) (26 км)
Погода в Лазаревском (Краснодарский край, Россия) (30 км)
Погода в Джубге (Краснодарский край, Россия) (38 км)
Погода в Кичмае (Краснодарский край, Россия) (46 км)
Погода в Солох Ауле (Краснодарский край, Россия) (56 км)
Погода в Горячем Ключе (Краснодарский край, Россия) (59 км)
Погода в Сочи (Краснодарский край, Россия) (81 км)
Погода в Гузерипле (Адыгея, Россия) (85 км)
Погода в Шунтуке (Адыгея, Россия) (93 км)

Пояснения к столбцам:

Ветер - указаны скорость ветра в м/с - средняя за 10 мин, порывы в срок и между сроками (в фигурных скобках) и направление, откуда дует ветер: С - северный, СВ - северо-восточный, В - восточный, ЮВ - юго-восточный, Ю - южный, ЮЗ - юго-западный, З - западный, СЗ - северо-западный.
Видимость - горизонтальная дальность видимости в метрах или километрах. При видимости от 1 до 10 км при отсутствии осадков обычно наблюдается дымка, при ухудшении видимости до 1 км и менее - туман. В сухую погоду видимость может ухудшаться дымом, пылью или мглою.
Явления - указаны атмосферные явления, наблюдавшиеся в срок или в последний час перед сроком; фигурными скобками обозначены явления, наблюдавшиеся между сроками (за 1-3 часа до срока); квадратными скобками обозначены град или гололедные отложения с указанием их диаметра в мм.
Облачность - указаны через наклонную черту общая и нижняя облачность в баллах и высота нижней границы облаков в метрах; квадратными скобками обозначены формы облаков: Ci - перистые, Cs - перисто-слоистые, Cc - перисто-кучевые, Ac - высококучевые, As - высокослоистые, Sc - слоисто-кучевые, Ns - слоисто-дождевые, Cu - кучевые, Cb - кучево-дождевые. Подробнее классификацию облаков см. в Атласе облаков (PDF).
T - Температура воздуха - температура, измеренная на высоте 2 м над землей.
Td - Температура точки росы - температура, при понижении до которой содержащийся в воздухе водяной пар достигнет насыщения.
f - Относительная влажность воздуха - влажноcть воздуха, измеренная на высоте 2 м над землей.
Te - Эффективная температура - температура, которую ощущает одетый по сезону человек в тени. Характеристика душности погоды. При расчете учитывается влияние влажности воздуха и скорости ветра на теплоощущения человека.
Tes - Эффективная температура на солнце - температура, которую ощущает человек, с поправкой на солнечный нагрев. Характеристика знойности погоды. Зависит от высоты солнца над горизонтом, облачности и скорости ветра. Ночью, в пасмурную погоду, а также при ветре 12 м/с и более поправка равна нулю.
P - Атмосферное давление - приведенное к уровню моря атмосферное давление.
Po - Атмосферное давление - измеренное на уровне метеостанции атмосферное давление.
Tmin - Минимальная температура - минимум температуры воздуха на высоте 2 м над землей.
Tmax - Максимальная температура - максимум температуры воздуха на высоте 2 м над землей.
R - Количество осадков - Количество выпавших осадков за период времени, мм. При наведении курсора мыши на число - период времени, за который выпало указанное количество осадков.
R24 - Количество осадков - Количество выпавших осадков за 24 часа, мм.
S - Снежный покров - Высота снежного покрова, см. При наведении курсора мыши на число - состояние снежного покрова и степень покрытия местности в баллах.